sat.trackr.live / text

‹ back to catalog

RUNNER-1 (TYVAK-1005)

NORAD 56953 · 2023-084X

PAYLOAD ACTIVE UNKNOWN

§ Identity

Operator
Country
CHLE
Launch date
2023-06-12
Launch site
AFWTR
Launch vehicle
Mass (kg)
RCS (m²)

External: N2YO · Heavens-Above · Gunter

§ Orbital elements

Epoch: 2026-09-21T17:06:32.744736Z

Period
93.54 min
Inclination
97.6368°
Eccentricity
0.0006979
Mean motion
15.39383711 rev/d
Perigee alt
443.2 km
Apogee alt
452.7 km
Semi-major
6,826.1 km
B*
1.8859e-4
RAAN
50.6801°
Arg perigee
337.4656°
Mean anomaly
22.6281°
Rev number
18,244

§ Raw data

RUNNER-1 (TYVAK-1005)1 56953U 23084X   26264.71287899  .00007290  00000+0  18859-3 0  99972 56953  97.6368  50.6801 0006979 337.4656  22.6281 15.39383711182445

JSON: /api/v1/satellites/56953 · /tle

For live sub-satellite position, see the globe view (requires WebGL).

§ Visibility from observer

Set your observer location to see the next 7 days of passes ≥ 10°. The values pass through the URL so the page stays shareable.

No JS? Fill the form by hand. The geolocation button needs JavaScript.

§ Radio — SatNOGS DB

ModeDescriptionDownlinkUplink
FM Mode S1 2.067 GHz
FM Mode S2 2.242 GHz

2 transmitters · refreshed weekly from db.satnogs.org